| time (UTC) | temp C | wind direction | speed KPH | gust KPH | rain 1hr cm | rain 24hr cm | rain mn cm | humidity % | barometer mb |
| 20260504201558 | 7 | 20 | 8.0 | 19.3 | 0.00 | 0.15 | 0.15 | 68 | 998.3 |
| 20260504200054 | 6 | 276 | 6.4 | 17.7 | 0.00 | 0.15 | 0.15 | 71 | 998.3 |
| 20260504194630 | 6 | 292 | 3.2 | 24.1 | 0.00 | 0.15 | 0.15 | 70 | 998.0 |
| 20260504193103 | 7 | 234 | 8.0 | 27.4 | 0.00 | 0.15 | 0.15 | 66 | 997.7 |
| 20260504191548 | 6 | 270 | 8.0 | 22.5 | 0.00 | 0.15 | 0.15 | 66 | 997.6 |
| 20260504184552 | 7 | 38 | 4.8 | 25.7 | 0.00 | 0.15 | 0.15 | 68 | 997.3 |
| 20260504183059 | 7 | 248 | 4.8 | 30.6 | 0.00 | 0.15 | 0.15 | 75 | 997.0 |
| 20260504181552 | 6 | 258 | 9.7 | 24.1 | 0.00 | 0.15 | 0.15 | 76 | 996.9 |
| 20260504180131 | 6 | 269 | 4.8 | 14.5 | 0.00 | 0.15 | 0.15 | 83 | 996.5 |
| 20260504174552 | 6 | 250 | 3.2 | 17.7 | 0.00 | 0.15 | 0.15 | 79 | 996.3 |
| 20260504173052 | 6 | 298 | 6.4 | 22.5 | 0.00 | 0.15 | 0.15 | 85 | 995.8 |
| 20260504171553 | 7 | 229 | 6.4 | 25.7 | 0.00 | 0.15 | 0.15 | 74 | 995.8 |
| 20260504120108 | 6 | 290 | 1.6 | 17.7 | 0.08 | 0.15 | 0.15 | 94 | 991.2 |
| 20260504100111 | 10 | 266 | 4.8 | 30.6 | 0.00 | 0.00 | 0.00 | 70 | 991.6 |
| 20260504081601 | 13 | 301 | 8.0 | 33.8 | 0.00 | 0.00 | 0.00 | 44 | 990.3 |
| 20260504044549 | 12 | 219 | 4.8 | 14.5 | 0.00 | 0.00 | 0.00 | 43 | 995.5 |
| 20260504043102 | 12 | 218 | 8.0 | 17.7 | 0.00 | 0.00 | 0.00 | 43 | 995.9 |
| 20260504041551 | 12 | 190 | 4.8 | 17.7 | 0.00 | 0.00 | 0.00 | 42 | 996.1 |
| 20260504040104 | 12 | 227 | 4.8 | 19.3 | 0.00 | 0.00 | 0.00 | 43 | 996.6 |
| 20260504034610 | 12 | 213 | 6.4 | 14.5 | 0.00 | 0.03 | 0.00 | 42 | 997.0 |
| 20260504033100 | 12 | 185 | 4.8 | 19.3 | 0.00 | 0.03 | 0.00 | 43 | 997.5 |
| 20260504031552 | 12 | 210 | 4.8 | 17.7 | 0.00 | 0.03 | 0.00 | 43 | 998.0 |
| 20260504030055 | 11 | 201 | 3.2 | 16.1 | 0.00 | 0.03 | 0.00 | 44 | 998.3 |
| 20260504024554 | 11 | 217 | 3.2 | 11.3 | 0.00 | 0.05 | 0.00 | 45 | 998.5 |
| 20260504023055 | 12 | 227 | 3.2 | 14.5 | 0.00 | 0.05 | 0.00 | 43 | 998.8 |
| 20260504021557 | 12 | 196 | 3.2 | 8.0 | 0.00 | 0.05 | 0.00 | 44 | 999.3 |
| 20260504020104 | 12 | 205 | 0.0 | 4.8 | 0.00 | 0.05 | 0.00 | 42 | 999.3 |
| 20260504014557 | 13 | 205 | 0.0 | 8.0 | 0.00 | 0.05 | 0.00 | 41 | 999.3 |
| 20260504013053 | 13 | 219 | 1.6 | 4.8 | 0.00 | 0.05 | 0.00 | 40 | 999.7 |
| 20260504011644 | 13 | 238 | 1.6 | 6.4 | 0.00 | 0.05 | 0.00 | 41 | 1000.2 |
| 20260504011550 | 13 | 238 | 1.6 | 6.4 | 0.00 | 0.05 | 0.00 | 41 | 1000.2 |
| 20260504010051 | 14 | 0 | 1.6 | 6.4 | 0.00 | 0.05 | 0.00 | 40 | 1000.4 |
| 20260504004551 | 15 | 199 | 0.0 | 11.3 | 0.00 | 0.05 | 0.00 | 38 | 1000.6 |
| 20260504003051 | 15 | 0 | 3.2 | 14.5 | 0.00 | 0.05 | 0.00 | 36 | 1000.9 |
| 20260504001553 | 16 | 241 | 3.2 | 14.5 | 0.00 | 0.05 | 0.00 | 37 | 1001.1 |
| 20260504000056 | 16 | 270 | 3.2 | 14.5 | 0.00 | 0.05 | 0.00 | 35 | 1001.5 |
| 20260503234552 | 16 | 270 | 3.2 | 11.3 | 0.00 | 0.05 | 0.00 | 35 | 1001.6 |
| 20260503233053 | 16 | 290 | 3.2 | 11.3 | 0.00 | 0.05 | 0.00 | 33 | 1001.8 |
| 20260503231552 | 16 | 187 | 1.6 | 14.5 | 0.00 | 0.05 | 0.00 | 36 | 1002.3 |
| 20260503230105 | 16 | 256 | 1.6 | 19.3 | 0.00 | 0.05 | 0.00 | 34 | 1002.2 |
| 20260503224559 | 16 | 296 | 3.2 | 22.5 | 0.00 | 0.05 | 0.00 | 35 | 1002.4 |
| 20260503223051 | 17 | 254 | 1.6 | 17.7 | 0.00 | 0.05 | 0.00 | 33 | 1002.3 |
| 20260503221552 | 17 | 194 | 6.4 | 17.7 | 0.00 | 0.05 | 0.00 | 33 | 1002.8 |
| 20260503220055 | 17 | 360 | 6.4 | 22.5 | 0.00 | 0.05 | 0.00 | 33 | 1002.8 |
| 20260503214551 | 17 | 235 | 6.4 | 16.1 | 0.00 | 0.05 | 0.00 | 32 | 1002.8 |
| 20260503213101 | 18 | 80 | 3.2 | 14.5 | 0.00 | 0.05 | 0.00 | 32 | 1002.9 |
| 20260503211609 | 17 | 197 | 4.8 | 14.5 | 0.00 | 0.05 | 0.00 | 33 | 1003.0 |
| 20260503210050 | 17 | 339 | 4.8 | 17.7 | 0.00 | 0.05 | 0.00 | 34 | 1003.1 |
| 20260503204552 | 16 | 81 | 9.7 | 27.4 | 0.00 | 0.05 | 0.00 | 33 | 1003.5 |
| 20260503203052 | 17 | 167 | 4.8 | 17.7 | 0.00 | 0.05 | 0.00 | 33 | 1003.6 |